Flag for Netherlands Weather past 2 weeks in Zaandam, Netherlands

61 °F

Passing clouds.

Feels Like: 61 °F
Forecast: 47 / 58 °F
Wind: 7 mph from East

Location: Amsterdam Schiphol Airport

Current Time: Oct 9, 2015 at 4:57:50 PM

Latest Report: Oct 9, 2015 at 4:25 PM

Visibility: N/A

Pressure: 30.18 "Hg

Humidity: 63%

Dew point: 48 °F

Location of ZaandamLocation

Historic Weather in Zaandam — Graph


Zaandam temperature yesterday

Maximum temperature yesterday: 61 °F (at 11:55 AM)
Minimum temperature yesterday: 52 °F (at 9:55 PM)
Average temperature yesterday: 57 °F

Past Weeks' High & Low Weather Summary

High64 °F (Oct 3, 4:25 PM)100% (Sep 24, 3:55 PM)30.66 "Hg (Sep 24, 3:55 PM)
Low43 °F (Oct 2, 7:55 AM)55% (Sep 29, 5:25 PM)29.53 "Hg (Oct 6, 2:55 PM)
Average55 °F86%30.19 "Hg
* Reported Sep 24 3:25 PM — Oct 9 3:55 PM, Zaandam, Weather by CustomWeather, © 2015

Note: Actual official high and low records may vary slightly from our data, if they occured in-between our weather recording intervals... More about our weather records


Zaandam weather history for previous 24 hours

Time TempWeatherWind HumidityBarometerVisibility
3:55 PM
Fri, Oct 9
61 °FPassing clouds.6 mph68%30.15 "HgN/A
3:25 PM61 °FPassing clouds.5 mph63%30.18 "HgN/A
2:55 PM59 °FScattered clouds.3 mph68%30.18 "HgN/A
2:25 PM59 °FPassing clouds.6 mph68%30.18 "HgN/A
1:55 PM61 °FPassing clouds.2 mph68%30.18 "HgN/A
1:25 PM59 °FPassing clouds.5 mph72%30.18 "HgN/A
12:55 PM59 °FPassing clouds.5 mph72%30.18 "HgN/A
12:25 PM57 °FPassing clouds.2 mph82%30.18 "HgN/A
11:55 AM57 °FPassing clouds.2 mph82%30.18 "HgN/A
11:25 AM57 °FPassing clouds.2 mph82%30.18 "HgN/A
10:55 AM55 °FPassing clouds.5 mph88%30.18 "HgN/A
10:25 AM54 °FPassing clouds.3 mph88%30.18 "HgN/A
9:55 AM54 °FPassing clouds.2 mph88%30.18 "Hg6 mi
9:25 AM50 °FPassing clouds.3 mph100%30.18 "HgN/A
8:55 AM46 °FFog.3 mph100%30.18 "HgN/A
8:25 AM48 °FFog.2 mph100%30.18 "HgN/A
7:55 AM46 °FFog.1 mph100%30.15 "Hg6 mi
7:25 AM46 °FFog.3 mph100%30.15 "Hg6 mi
6:55 AM48 °FFog.1 mph94%30.15 "Hg5 mi
6:25 AM50 °FFog.5 mph94%30.15 "Hg5 mi
5:55 AM50 °FFog.2 mph94%30.15 "HgN/A
5:25 AM50 °FPassing clouds.3 mph100%30.15 "HgN/A
4:55 AM50 °FPassing clouds.5 mph100%30.18 "HgN/A
4:25 AM50 °FPassing clouds.1 mph100%30.18 "HgN/A
3:55 AM50 °FPassing clouds.2 mph100%30.15 "HgN/A
3:25 AM52 °FPassing clouds.3 mph94%30.15 "HgN/A
2:55 AM52 °FPassing clouds.2 mph100%30.15 "HgN/A
2:25 AM52 °FPassing clouds.2 mph100%30.15 "HgN/A
1:55 AM52 °FPassing clouds.1 mph100%30.15 "HgN/A
1:25 AM54 °FPassing clouds.1 mph94%30.15 "HgN/A
12:55 AM54 °FPartly cloudy.2 mph94%30.15 "HgN/A
12:25 AM54 °FPartly cloudy.1 mph94%30.15 "HgN/A
11:55 PM
Thu, Oct 8
54 °FPartly cloudy.3 mph94%30.18 "HgN/A
11:25 PM54 °FPartly cloudy.3 mph94%30.18 "HgN/A
10:55 PM54 °FSprinkles. Passing clouds.6 mph94%30.18 "Hg6 mi
10:25 PM54 °FPartly cloudy.5 mph94%30.18 "HgN/A
9:55 PM52 °FPassing clouds.5 mph94%30.15 "HgN/A
9:25 PM54 °FPassing clouds.7 mph94%30.15 "HgN/A
8:55 PM54 °FPassing clouds.6 mph88%30.15 "HgN/A
8:25 PM55 °FPassing clouds.5 mph88%30.15 "HgN/A
7:55 PM54 °FPartly sunny.3 mph94%30.15 "HgN/A
7:25 PM54 °FPartly sunny.3 mph94%30.15 "HgN/A
6:55 PM54 °FPartly sunny.6 mph88%30.15 "HgN/A
6:25 PM55 °FScattered clouds.7 mph82%30.12 "HgN/A
5:55 PM57 °FPassing clouds.7 mph77%30.12 "HgN/A
5:25 PM57 °FPassing clouds.10 mph82%30.12 "HgN/A
4:55 PM57 °FScattered clouds.12 mph82%30.12 "HgN/A
4:25 PM59 °FScattered clouds.9 mph77%30.12 "HgN/A
Weather by CustomWeather, © 2015

See weather overviewHow to use our weather pages